Weather reports worldwide

Advertisment
Pembrey Sands, United Kingdom (3605): temperature & dewpoint: 18.06.2018 10:00:00 - 24.06.2018 10:00:00 (BST)Pembrey Sands, United Kingdom (3605): wind speed & gusts: 18.06.2018 10:00:00 - 24.06.2018 10:00:00 (BST)Pembrey Sands, United Kingdom (3605): wind direction: 18.06.2018 10:00:00 - 24.06.2018 10:00:00 (BST)Pembrey Sands, United Kingdom (3605): reduced air pressure: 18.06.2018 10:00:00 - 24.06.2018 10:00:00 (BST)Pembrey Sands, United Kingdom (3605): visibility: 18.06.2018 10:00:00 - 24.06.2018 10:00:00 (BST)Pembrey Sands, United Kingdom (3605): precipitation: 18.06.2018 10:00:00 - 24.06.2018 10:00:00 (BST)
Date & Time tt [°C] td [°C] ff [km/h] ff [kn] fx [km/h] fx [kn] dd ppp [hPa] vv [km] rr [mm]
24.06.2018 10:00:00 18,4 11,4 11 6 - - SSW 1026,4 30 0,0
24.06.2018 09:00:00 17,2 10,7 5 3 - - E 1026,6 35 0,0
24.06.2018 08:00:00 15,4 10,1 9 5 - - ENE 1026,5 30 0,0
24.06.2018 07:00:00 13,4 9,1 11 6 - - E 1026,5 35 0,0
24.06.2018 06:00:00 11,0 8,6 9 5 - - ENE 1026,1 35 0,0
24.06.2018 05:00:00 11,5 8,8 18 10 - - ENE 1026,0 35 0,0
24.06.2018 04:00:00 10,2 8,1 13 7 - - ENE 1026,0 26 0,0
24.06.2018 03:00:00 9,6 7,4 9 5 - - NE 1026,2 23 0,0
24.06.2018 02:00:00 11,4 8,5 13 7 - - NNE 1026,7 30 0,0
24.06.2018 01:00:00 9,4 7,3 4 2 - - ENE 1026,9 30 0,0
24.06.2018 00:00:00 11,2 8,4 5 3 - - ENE 1027,1 35 0,0
23.06.2018 23:00:00 11,7 8,1 11 6 - - NNE 1027,2 35 0,0
23.06.2018 22:00:00 14,5 9,5 13 7 - - N 1027,2 30 0,0
23.06.2018 21:00:00 17,2 12,3 8 4 - - NE 1026,8 29 0,0
23.06.2018 20:00:00 17,1 12,3 5 3 - - S 1027,0 29 0,0
23.06.2018 19:00:00 17,5 11,0 16 9 - - SW 1027,1 30 0,0
23.06.2018 18:00:00 17,5 10,7 22 12 - - SW 1027,4 30 0,0
23.06.2018 17:00:00 17,7 11,4 13 7 - - SW 1028,2 30 0,0
23.06.2018 16:00:00 17,8 12,5 13 7 - - SW 1028,6 30 0,0
23.06.2018 15:00:00 18,3 13,4 15 8 - - SW 1029,0 29 0,0
23.06.2018 14:00:00 17,7 12,3 13 7 - - SSW 1029,4 26 0,0
23.06.2018 13:00:00 17,2 12,1 15 8 - - SSW 1030,0 26 0,0
23.06.2018 12:00:00 17,1 12,5 15 8 - - SSW 1030,2 26 0,0
23.06.2018 11:00:00 17,3 12,8 15 8 - - SSW 1030,3 25 0,0
23.06.2018 10:00:00 16,9 12,3 11 6 - - SSW 1030,2 21 0,0
23.06.2018 09:00:00 15,8 11,9 5 3 - - WSW 1030,4 22 0,0
23.06.2018 08:00:00 14,6 10,7 5 3 - - E 1030,4 27 0,0
23.06.2018 07:00:00 11,3 8,8 8 4 - - E 1030,3 35 0,0
23.06.2018 06:00:00 8,4 7,2 5 3 - - NE 1030,3 23 0,0
23.06.2018 05:00:00 7,2 5,7 8 4 - - E 1030,1 30 0,0
23.06.2018 04:00:00 7,9 6,2 9 5 - - NE 1030,5 27 0,0
23.06.2018 03:00:00 8,7 7,0 5 3 - - ENE 1030,6 30 0,0
23.06.2018 02:00:00 10,0 8,0 9 5 - - NE 1030,7 30 0,0
23.06.2018 01:00:00 9,5 6,6 8 4 - - ENE 1031,0 25 0,0
23.06.2018 00:00:00 11,6 8,2 11 6 - - ENE 1030,9 35 0,0
22.06.2018 23:00:00 12,5 8,1 16 9 - - NNE 1031,0 30 0,0
22.06.2018 22:00:00 13,3 8,3 18 10 - - N 1031,0 30 0,0
22.06.2018 21:00:00 15,7 9,4 21 11 - - N 1030,8 30 0,0
22.06.2018 20:00:00 16,8 9,5 16 9 - - N 1030,8 29 0,0
22.06.2018 19:00:00 17,1 9,9 22 12 - - N 1030,8 28 0,0
22.06.2018 18:00:00 17,7 9,6 22 12 - - NNW 1031,2 29 0,0
22.06.2018 17:00:00 17,9 9,0 22 12 - - N 1031,2 29 0,0
22.06.2018 16:00:00 17,9 8,1 22 12 - - N 1031,5 30 0,0
22.06.2018 15:00:00 18,5 8,6 18 10 - - NNW 1032,0 30 0,0
22.06.2018 14:00:00 18,3 8,5 18 10 - - NNW 1032,1 30 0,0
22.06.2018 13:00:00 17,5 8,0 18 10 - - NNW 1032,5 30 0,0
22.06.2018 12:00:00 16,7 7,6 21 11 - - N 1032,8 30 0,0
22.06.2018 11:00:00 15,9 7,8 22 12 - - N 1032,8 30 0,0
22.06.2018 10:00:00 15,0 7,8 22 12 - - N 1033,1 30 0,0
22.06.2018 09:00:00 13,9 7,8 24 13 - - N 1032,9 29 0,0
22.06.2018 08:00:00 12,4 8,0 18 10 - - NNE 1033,1 28 0,0
22.06.2018 07:00:00 10,2 7,8 8 4 - - N 1033,1 28 0,0
22.06.2018 06:00:00 4,9 4,0 4 2 - - ENE 1032,8 22 0,0
22.06.2018 05:00:00 5,8 4,8 11 6 - - N 1032,7 23 0,0
22.06.2018 04:00:00 4,4 3,4 11 6 - - NNE 1032,7 25 0,0
22.06.2018 03:00:00 3,9 2,8 5 3 - - NW 1032,6 29 0,0
22.06.2018 02:00:00 4,5 3,1 4 2 - - NW 1032,6 24 0,0
22.06.2018 01:00:00 6,2 3,9 8 4 - - NNW 1032,7 35 0,0
22.06.2018 00:00:00 8,2 5,8 18 10 - - N 1032,6 35 0,0
21.06.2018 23:00:00 10,8 6,0 8 4 - - N 1032,5 35 0,0
21.06.2018 22:00:00 12,2 5,3 22 12 - - N 1031,9 40 0,0
21.06.2018 21:00:00 13,8 5,4 18 10 46 25 NNE 1031,5 35 0,0
21.06.2018 20:00:00 14,9 5,6 31 17 46 25 N 1031,2 35 0,0
21.06.2018 19:00:00 15,8 4,3 28 15 54 29 N 1031,2 35 0,0
21.06.2018 18:00:00 16,0 6,6 28 15 48 26 N 1030,9 29 0,0
21.06.2018 17:00:00 16,4 7,0 28 15 46 25 N 1030,6 30 0,0
21.06.2018 16:00:00 16,3 7,3 22 12 46 25 N 1030,5 30 0,0
21.06.2018 15:00:00 16,2 7,4 29 16 50 27 N 1030,1 30 0,0
21.06.2018 14:00:00 15,6 6,4 29 16 - - N 1029,8 30 0,0
21.06.2018 13:00:00 15,0 6,9 24 13 46 25 N 1029,9 28 0,0
21.06.2018 12:00:00 14,2 6,5 24 13 46 25 N 1029,5 30 0,0
21.06.2018 11:00:00 14,2 7,2 26 14 - - N 1029,0 30 0,0
21.06.2018 10:00:00 13,8 6,4 26 14 - - N 1028,6 30 0,0
21.06.2018 09:00:00 12,6 6,4 26 14 50 27 N 1028,1 30 0,0
21.06.2018 08:00:00 11,8 6,6 34 18 54 29 N 1027,2 20 0,0
21.06.2018 07:00:00 10,5 6,4 21 11 - - NNW 1026,8 30 0,0
21.06.2018 06:00:00 10,3 6,2 24 13 - - NNW 1026,7 35 0,0
21.06.2018 05:00:00 10,5 7,1 21 11 - - NNW 1026,0 35 0,0
21.06.2018 04:00:00 10,5 7,5 15 8 - - NNW 1025,6 40 0,0
21.06.2018 03:00:00 10,8 8,5 18 10 - - NNW 1025,3 35 0,0
21.06.2018 02:00:00 11,7 8,9 21 11 - - NW 1025,1 30 0,0
21.06.2018 01:00:00 11,5 8,8 24 13 - - NW 1024,9 30 0,0
21.06.2018 00:00:00 11,2 8,9 22 12 - - NW 1024,5 25 0,0
20.06.2018 23:00:00 11,6 8,7 15 8 - - NNW 1024,2 35 0,0
20.06.2018 22:00:00 12,4 8,3 18 10 - - NNW 1023,5 40 0,0
20.06.2018 21:00:00 13,3 7,6 15 8 - - N 1022,7 35 0,0
20.06.2018 20:00:00 15,0 8,1 21 11 - - N 1022,4 35 0,0
20.06.2018 19:00:00 15,3 8,9 26 14 48 26 N 1022,0 35 0,0
20.06.2018 18:00:00 15,5 10,5 24 13 - - N 1021,5 30 0,0
20.06.2018 17:00:00 15,2 11,6 26 14 - - N 1021,1 30 0,0
20.06.2018 16:00:00 14,4 12,0 21 11 - - N 1021,0 29 0,0
20.06.2018 15:00:00 17,5 14,7 24 13 - - WSW 1020,4 17 0,0
20.06.2018 14:00:00 16,3 14,3 28 15 - - WSW 1020,6 13 0,0
20.06.2018 13:00:00 16,2 15,0 22 12 - - WSW 1020,6 12 0,0
20.06.2018 12:00:00 15,2 14,9 29 16 50 27 WSW 1020,6 3,9 0,0
20.06.2018 11:00:00 15,4 15,2 37 20 46 25 SSW 1020,2 1,4 0,0
20.06.2018 10:00:00 15,1 14,8 39 21 52 28 SSW 1020,1 3,4 0,2
20.06.2018 09:00:00 14,8 14,5 42 23 52 28 SSW 1019,9 6 0,0
20.06.2018 08:00:00 14,5 14,2 44 24 52 28 SSW 1019,8 5 0,0
20.06.2018 07:00:00 14,5 14,0 44 24 54 29 SSW 1019,9 12 0,0
20.06.2018 06:00:00 14,4 13,9 44 24 52 28 SSW 1019,7 21 0,0
20.06.2018 05:00:00 14,4 14,1 42 23 50 27 SSW 1020,0 10 0,0
20.06.2018 04:00:00 14,5 14,0 39 21 - - SSW 1020,6 7 0,0
20.06.2018 03:00:00 14,8 14,1 35 19 46 25 SSW 1020,9 20 0,0
20.06.2018 02:00:00 15,1 14,4 34 18 - - SSW 1021,2 12 0,0
20.06.2018 01:00:00 15,2 14,6 26 14 - - SSW 1021,7 8 0,0
20.06.2018 00:00:00 15,2 14,6 26 14 - - SSW 1022,0 8 0,0
19.06.2018 23:00:00 15,4 14,7 24 13 - - SW 1022,4 9 0,0
19.06.2018 22:00:00 15,4 14,8 28 15 - - SW 1022,2 9 0,0
19.06.2018 21:00:00 15,4 14,8 26 14 - - SW 1022,1 12 0,0
19.06.2018 20:00:00 15,6 15,1 24 13 - - SSW 1022,4 13 0,0
19.06.2018 19:00:00 15,6 15,3 22 12 - - SSW 1022,6 10 0,0
19.06.2018 18:00:00 15,5 15,3 22 12 - - WSW 1022,9 1,4 0,0
19.06.2018 17:00:00 15,7 15,5 28 15 - - SW 1022,9 0,8 0,0
19.06.2018 16:00:00 15,8 15,6 24 13 - - SW 1023,0 1,2 0,0
19.06.2018 15:00:00 15,7 15,5 29 16 - - SSW 1023,1 1,2 0,0
19.06.2018 14:00:00 15,8 15,6 28 15 - - SSW 1023,1 1,1 0,0
19.06.2018 13:00:00 15,8 15,6 29 16 - - SW 1023,2 2,3 0,0
19.06.2018 12:00:00 15,3 15,1 29 16 - - SSW 1023,1 0,6 0,2
19.06.2018 11:00:00 15,3 15,1 29 16 - - SSW 1023,0 2,0 0,0
19.06.2018 10:00:00 15,5 15,2 24 13 - - SSW 1023,1 2,4 0,0
19.06.2018 09:00:00 15,2 14,8 22 12 - - SSW 1023,0 1,5 0,2
19.06.2018 08:00:00 14,8 14,0 13 7 - - SW 1022,8 4,9 0,0
19.06.2018 07:00:00 14,3 13,7 18 10 - - W 1022,6 8 0,0
19.06.2018 06:00:00 14,2 13,6 21 11 - - W 1022,3 9 0,0
19.06.2018 05:00:00 14,3 13,7 22 12 - - W 1022,1 12 0,0
19.06.2018 04:00:00 14,5 14,0 22 12 - - W 1022,0 7 0,0
19.06.2018 03:00:00 14,6 14,1 24 13 - - W 1021,9 6 0,0
19.06.2018 02:00:00 14,8 14,2 29 16 - - W 1021,9 8 0,0
19.06.2018 01:00:00 15,0 14,5 26 14 - - W 1021,7 4,2 0,0
19.06.2018 00:00:00 15,1 14,7 29 16 - - W 1021,5 6 0,0
18.06.2018 23:00:00 15,1 14,6 34 18 50 27 WSW 1021,5 2,5 0,0
18.06.2018 22:00:00 15,2 14,7 37 20 50 27 WSW 1021,2 2,6 0,0
18.06.2018 21:00:00 15,3 14,9 46 25 55 30 WSW 1020,4 3,7 0,0
18.06.2018 20:00:00 15,4 15,0 46 25 54 29 SW 1020,0 5 0,0
18.06.2018 19:00:00 15,6 15,1 41 22 54 29 SW 1019,7 2,6 0,0
18.06.2018 18:00:00 15,9 15,4 41 22 48 26 SW 1019,6 4,4 0,0
18.06.2018 17:00:00 15,8 15,2 35 19 - - SW 1019,7 3,3 0,0
18.06.2018 16:00:00 15,7 14,8 29 16 - - SW 1020,1 12 0,0
18.06.2018 15:00:00 16,1 15,3 35 19 - - SW 1019,8 6 0,0
18.06.2018 14:00:00 15,2 14,5 37 20 48 26 SSW 1020,2 5 0,0
18.06.2018 13:00:00 14,6 14,0 28 15 - - SSW 1020,3 4,6 0,0
18.06.2018 12:00:00 14,1 13,1 26 14 - - SW 1020,8 4,1 0,0
18.06.2018 11:00:00 14,3 12,0 31 17 - - WSW 1020,5 6 0,0
18.06.2018 10:00:00 15,3 11,7 24 13 - - SW 1020,1 10 0,0

tt = temperature
td = dewpoint
ff = wind speed
fx = gusts
dd = wind direction
ppp = reduced air pressure
vv = visibility
rr = precipitation

Next stations